Location: Albany
(35.0000°S, 118.0000°E)
Time: 19:50:53
(UTC-04:00)

Vanguard 3 - Visible Passes

Search period start: 22 October 2014 00:00
Search period end: 01 November 2014 00:00
Orbit: 508 x 3278 km, 33.3° (Epoch: 21 October)

Date Brightness Start Highest point End Pass type
(mag) Time Alt. Az. Time Alt. Az. Time Alt. Az.
22 Oct 11.0 08:38:16 10° W 08:47:25 16° NW 08:55:20 10° NNW visible
23 Oct 10.9 07:19:16 10° W 07:34:25 28° NW 07:47:13 10° N visible
24 Oct 11.3 08:27:53 10° WNW 08:34:17 13° NW 08:40:12 10° NNW visible
25 Oct 11.1 07:07:13 10° W 07:21:09 24° NW 07:33:37 10° N visible
27 Oct 11.3 06:55:36 10° W 07:07:55 20° NW 07:19:32 10° N visible
29 Oct 11.5 06:44:38 10° WNW 06:54:46 17° NW 07:04:42 10° NNW visible
